Weather History for Cheboygan, MI

Change the Weather History Date:

Wednesday, January 2, 2013

  Actual Average (KPLN) Record (KPLN)
Temperature  
Mean Temperature 18 °F -  
Max Temperature 23 °F 28 °F 46 °F (1998)
Min Temperature 13 °F 13 °F -22 °F (2014)
Degree Days  
Heating Degree Days 47    
Moisture  
Dew Point 17 °F    
Average Humidity 84    
Maximum Humidity 93    
Minimum Humidity 69    
Precipitation  
Precipitation 0.00 in - - ()
Sea Level Pressure  
Sea Level Pressure 30.03 in    
Wind  
Wind Speed 4 mph (SSW)    
Max Wind Speed 9 mph    
Max Gust Speed -    
Visibility 7 miles    
Events Snow    
Averages and records for this station are not official NWS values.
T = Trace of Precipitation, MM = Missing Value Source: NWS Daily Summary

Daily Weather History Graph

Daily Weather History Graph

Search for Another Location

Airport:

Trip Planner

Search our weather history database for the weather conditions in past years. The results will help you decide how hot, cold, wet, or windy it might be!

Date:

Astronomy

Jan. 02, 2013 Rise Set
Actual Time 8:18 AM EST 5:06 PM EST
Civil Twilight 7:44 AM EST 5:40 PM EST
Nautical Twilight 7:07 AM EST 6:17 PM EST
Astronomical Twilight 6:31 AM EST 6:53 PM EST
Moon 10:56 PM EST (1/2) 10:43 AM EST (1/2)
Length of Visible Light 9h 55m
Length of Day
8h 47m
Waning Gibbous, 75% of the Moon is Illuminated
Jan 2
Waning Gibbous
Jan 4
Last Quarter
Jan 11
New
Jan 18
First Quarter
Jan 26
Full

Hourly Weather History & Observations

Time (EST) Temp. Windchill Dew Point Humidity Pressure Visibility Wind Dir Wind Speed Gust Speed Precip Events Conditions
12:15 AM 17.2 °F 10.2 °F 9.3 °F 71% 29.95 in 10.0 mi West 4.6 mph - N/A   Clear
12:35 AM 16.7 °F 9.6 °F 9.3 °F 73% 29.95 in 10.0 mi West 4.6 mph - N/A   Clear
12:55 AM 16.2 °F 7.6 °F 8.6 °F 72% 29.95 in 10.0 mi West 5.8 mph - N/A   Clear
1:15 AM 15.8 °F 7.2 °F 8.2 °F 72% 29.94 in 10.0 mi West 5.8 mph - N/A   Clear
1:35 AM 16.2 °F 7.6 °F 7.7 °F 69% 29.94 in 10.0 mi West 5.8 mph - N/A   Clear
1:55 AM 16.2 °F 7.6 °F 7.7 °F 69% 29.94 in 10.0 mi West 5.8 mph - N/A   Clear
2:15 AM 15.8 °F 7.2 °F 8.2 °F 72% 29.95 in 10.0 mi SSW 5.8 mph - N/A   Clear
2:35 AM 14.7 °F 4.8 °F 8.6 °F 77% 29.94 in 10.0 mi SSW 6.9 mph - N/A   Clear
2:55 AM 13.6 °F 6.0 °F 7.7 °F 77% 29.95 in 10.0 mi SW 4.6 mph - N/A   Clear
3:15 AM 13.5 °F 3.3 °F 8.2 °F 80% 29.96 in 10.0 mi SW 6.9 mph - N/A   Clear
3:35 AM 14.4 °F 3.3 °F 8.6 °F 78% 29.95 in 10.0 mi WSW 8.1 mph - N/A   Clear
3:55 AM 15.8 °F 4.2 °F 9.5 °F 76% 29.95 in 10.0 mi WSW 9.2 mph - N/A   Scattered Clouds
4:15 AM 16.9 °F 6.4 °F 10.9 °F 77% 29.95 in 10.0 mi WSW 8.1 mph - N/A   Mostly Cloudy
4:35 AM 18.3 °F 7.3 °F 12.4 °F 78% 29.95 in 10.0 mi WSW 9.2 mph - N/A   Overcast
4:56 AM 19.4 °F 9.5 °F 14.4 °F 81% 29.96 in 10.0 mi West 8.1 mph - N/A   Overcast
5:15 AM 20.1 °F 10.3 °F 14.9 °F 80% 29.96 in 10.0 mi WSW 8.1 mph - N/A   Overcast
5:35 AM 20.1 °F 9.5 °F 15.3 °F 81% 29.96 in 10.0 mi West 9.2 mph - N/A Snow Light Snow
5:56 AM 20.1 °F 11.3 °F 15.6 °F 83% 29.97 in 10.0 mi WSW 6.9 mph - N/A Snow Light Snow
6:15 AM 20.3 °F 13.8 °F 16.2 °F 84% 29.98 in 10.0 mi SW 4.6 mph - N/A Snow Light Snow
6:35 AM 20.3 °F 12.5 °F 16.5 °F 85% 29.99 in 7.0 mi SW 5.8 mph - N/A Snow Light Snow
6:55 AM 21.0 °F 12.4 °F 17.4 °F 86% 29.98 in 7.0 mi SW 6.9 mph - N/A Snow Light Snow
7:15 AM 21.2 °F 13.6 °F 17.4 °F 85% 29.99 in 10.0 mi SW 5.8 mph - N/A Snow Light Snow
7:35 AM 21.2 °F 14.9 °F 17.6 °F 86% 30.00 in 7.0 mi SW 4.6 mph - N/A Snow Light Snow
7:55 AM 21.2 °F 16.4 °F 17.6 °F 86% 30.01 in 5.0 mi SW 3.5 mph - N/A Snow Light Snow
8:15 AM 21.2 °F 16.4 °F 17.8 °F 87% 30.02 in 7.0 mi WSW 3.5 mph - N/A Snow Light Snow
8:35 AM 21.7 °F 15.5 °F 18.3 °F 87% 30.03 in 4.0 mi West 4.6 mph - N/A Snow Light Snow
8:55 AM 21.9 °F 15.7 °F 18.5 °F 87% 30.03 in 7.0 mi WSW 4.6 mph - N/A Snow Light Snow
9:15 AM 21.9 °F - 18.9 °F 88% 30.04 in 4.0 mi Calm Calm - N/A Snow Light Snow
9:35 AM 22.3 °F - 19.0 °F 87% 30.04 in 2.0 mi Calm Calm - N/A Snow Light Snow
9:55 AM 22.6 °F - 19.4 °F 87% 30.05 in 2.0 mi Calm Calm - N/A Snow Light Snow
10:15 AM 22.6 °F 18.0 °F 19.4 °F 87% 30.05 in 2.0 mi West 3.5 mph - N/A Snow Light Snow
10:35 AM 23.0 °F - 19.6 °F 87% 30.06 in 2.0 mi Calm Calm - N/A Snow Light Snow
10:55 AM 22.8 °F - 19.8 °F 88% 30.06 in 1.8 mi Calm Calm - N/A Snow Light Snow
11:15 AM 23.0 °F - 19.9 °F 88% 30.07 in 2.0 mi Calm Calm - N/A Snow Light Snow
11:35 AM 23.0 °F - 19.9 °F 88% 30.07 in 3.0 mi Calm Calm - N/A Snow Light Snow
11:55 AM 22.8 °F - 19.6 °F 87% 30.07 in 3.0 mi Calm Calm - N/A Snow Light Snow
12:15 PM 23.0 °F - 19.9 °F 88% 30.07 in 2.0 mi Calm Calm - N/A Snow Light Snow
12:35 PM 23.0 °F - 19.9 °F 88% 30.07 in 2.5 mi Calm Calm - N/A Snow Light Snow
12:55 PM 23.2 °F - 19.9 °F 87% 30.06 in 4.0 mi Calm Calm - N/A Snow Light Snow
1:15 PM 23.4 °F - 19.9 °F 87% 30.06 in 4.0 mi Calm Calm - N/A Snow Light Snow
1:35 PM 23.4 °F - 20.1 °F 87% 30.06 in 3.0 mi Calm Calm - N/A Snow Light Snow
1:55 PM 23.4 °F - 20.3 °F 88% 30.05 in 4.0 mi Calm Calm - N/A Snow Light Snow
2:15 PM 23.5 °F - 20.3 °F 87% 30.05 in 4.0 mi Calm Calm - N/A Snow Light Snow
2:35 PM 23.9 °F 19.5 °F 20.3 °F 86% 30.06 in 7.0 mi South 3.5 mph - N/A Snow Light Snow
2:55 PM 23.7 °F - 20.3 °F 87% 30.07 in 4.0 mi Calm Calm - N/A Snow Light Snow
3:15 PM 23.7 °F 19.3 °F 20.1 °F 86% 30.06 in 5.0 mi SSE 3.5 mph - N/A Snow Light Snow
3:35 PM 23.7 °F - 20.3 °F 87% 30.07 in 5.0 mi Calm Calm - N/A Snow Light Snow
3:55 PM 23.9 °F 19.5 °F 20.8 °F 88% 30.07 in 7.0 mi SSE 3.5 mph - N/A Snow Light Snow
4:15 PM 23.9 °F 18.0 °F 20.8 °F 88% 30.07 in 7.0 mi SSE 4.6 mph - N/A Snow Light Snow
4:35 PM 23.9 °F 19.5 °F 20.8 °F 88% 30.07 in 7.0 mi SSE 3.5 mph - N/A   Overcast
4:55 PM 23.7 °F - 20.8 °F 89% 30.07 in 7.0 mi Calm Calm - N/A Snow Light Snow
5:15 PM 23.7 °F 17.8 °F 21.0 °F 89% 30.07 in 5.0 mi SE 4.6 mph - N/A Snow Light Snow
5:35 PM 23.5 °F - 21.2 °F 91% 30.07 in 7.0 mi Calm Calm - N/A Snow Light Snow
5:55 PM 23.5 °F 19.1 °F 21.2 °F 91% 30.08 in 7.0 mi SSE 3.5 mph - N/A Snow Light Snow
6:15 PM 23.7 °F 19.3 °F 21.6 °F 91% 30.08 in 7.0 mi SSE 3.5 mph - N/A Snow Light Snow
6:35 PM 23.9 °F 19.5 °F 21.9 °F 92% 30.08 in 7.0 mi South 3.5 mph - N/A Snow Light Snow
6:55 PM 23.9 °F 19.5 °F 22.1 °F 93% 30.08 in 5.0 mi South 3.5 mph - N/A Snow Light Snow
7:15 PM 23.9 °F 18.0 °F 21.9 °F 92% 30.08 in 7.0 mi South 4.6 mph - N/A Snow Light Snow
7:35 PM 23.9 °F 15.8 °F 21.6 °F 91% 30.07 in 10.0 mi South 6.9 mph - N/A Snow Light Snow
7:55 PM 23.9 °F 18.0 °F 21.0 °F 89% 30.07 in 7.0 mi South 4.6 mph - N/A Snow Light Snow
8:35 PM 23.9 °F 18.0 °F 20.3 °F 86% 30.07 in 10.0 mi South 4.6 mph - N/A   Overcast
8:55 PM 23.9 °F 18.0 °F 20.1 °F 85% 30.07 in 10.0 mi SSW 4.6 mph - N/A   Overcast
9:15 PM 23.9 °F 19.5 °F 19.2 °F 82% 30.07 in 10.0 mi SW 3.5 mph - N/A   Overcast
9:35 PM 23.9 °F 19.5 °F 18.7 °F 80% 30.06 in 10.0 mi SSW 3.5 mph - N/A   Overcast
9:55 PM 23.7 °F 19.3 °F 18.3 °F 80% 30.05 in 10.0 mi South 3.5 mph - N/A   Overcast
10:15 PM 23.5 °F 19.1 °F 18.5 °F 81% 30.05 in 10.0 mi South 3.5 mph - N/A   Overcast
10:35 PM 23.5 °F 19.1 °F 18.5 °F 81% 30.06 in 10.0 mi SSW 3.5 mph - N/A   Overcast
10:55 PM 23.9 °F 16.8 °F 18.1 °F 79% 30.05 in 7.0 mi South 5.8 mph - N/A Snow Light Snow
11:15 PM 23.7 °F 16.6 °F 18.3 °F 80% 30.05 in 7.0 mi SSW 5.8 mph - N/A Snow Light Snow
11:35 PM 23.7 °F 15.6 °F 18.5 °F 80% 30.05 in 7.0 mi South 6.9 mph - N/A Snow Light Snow
11:55 PM 23.7 °F 16.6 °F 18.5 °F 80% 30.05 in 7.0 mi South 5.8 mph - N/A Snow Light Snow